Weather History for Al Hoceima, Morocco

Change the Weather History Date:

Saturday, March 9, 2013

  Actual Average Record
Temperature  
Mean Temperature 64 °F -  
Max Temperature 76 °F 64 °F 77 °F (1998)
Min Temperature 53 °F 50 °F 39 °F (2005)
Growing Degree Days 14 (Base 50)    
Moisture  
Dew Point 54 °F    
Average Humidity 68    
Maximum Humidity 82    
Minimum Humidity 47    
Precipitation  
Precipitation 0.00 in - - ()
Sea Level Pressure  
Sea Level Pressure 29.90 in    
Wind  
Wind Speed 6 mph ()    
Max Wind Speed 12 mph    
Max Gust Speed -    
Visibility 6.6 miles    
Events Rain    
Averages and records for this station are not official NWS values.
T = Trace of Precipitation, MM = Missing Value Source: Averaged Metar Reports

Daily Weather History Graph

Daily Weather History Graph

Search for Another Location

Airport:

Trip Planner

Search our weather history database for the weather conditions in past years. The results will help you decide how hot, cold, wet, or windy it might be!

Date:

Astronomy

Mar. 09, 2013 Rise Set
Actual Time 6:34 AM WET 6:17 PM WET
Civil Twilight 6:08 AM WET 6:43 PM WET
Nautical Twilight 5:39 AM WET 7:12 PM WET
Astronomical Twilight 5:10 AM WET 7:42 PM WET
Moon 4:44 AM WET (3/9) 4:07 PM WET (3/9)
Length of Visible Light 12h 34m
Length of Day
11h 43m
Waning Crescent, 7% of the Moon is Illuminated
Mar 9
Waning Crescent
Mar 11
New
Mar 19
First Quarter
Mar 27
Full
Apr 3
Last Quarter

Hourly Weather History & Observations

Time (WET) Temp. Dew Point Humidity Pressure Visibility Wind Dir Wind Speed Gust Speed Precip Events Conditions
6:00 AM 59 °F 48 °F 58% 29.90 in 9 mi SSW 4.6 mph - -   Partly Cloudy
6:00 AM 59.0 °F 48.2 °F 67% 29.89 in 6.2 mi SSW 4.6 mph - N/A   Partly Cloudy
7:00 AM 53.6 °F 46.4 °F 77% 29.89 in 6.2 mi SE 2.3 mph - N/A   Partly Cloudy
8:00 AM 62.6 °F 53.6 °F 72% 29.89 in 6.2 mi WSW 6.9 mph - N/A   Partly Cloudy
9:00 AM 69 °F 54 °F 49% 29.92 in 9 mi ENE 9.2 mph - -   Scattered Clouds
9:00 AM 69.8 °F 53.6 °F 56% 29.92 in 6.2 mi ENE 4.6 mph - N/A   Partly Cloudy
10:00 AM 75.2 °F 55.4 °F 50% 29.92 in - North - - N/A   Partly Cloudy
11:00 AM 71.6 °F 55.4 °F 57% 29.92 in 6.2 mi SE 11.5 mph - N/A   Partly Cloudy
12:00 PM 72 °F 56 °F 47% 29.91 in 9 mi NNE 11.5 mph - -   Mostly Cloudy
12:00 PM 71.6 °F 55.4 °F 57% 29.89 in 6.2 mi NNE 11.5 mph - N/A   Scattered Clouds
1:00 PM 68.0 °F 55.4 °F 64% 29.89 in 6.2 mi NNE 11.5 mph - N/A   Scattered Clouds
2:00 PM 64.4 °F 55.4 °F 73% 29.89 in 6.2 mi NNE 11.5 mph - N/A   Mostly Cloudy
3:00 PM 63 °F 56 °F 72% 29.90 in 6 mi NNE 9.2 mph - -   Mostly Cloudy
3:00 PM 62.6 °F 55.4 °F 77% 29.89 in 6.2 mi NNE 9.2 mph - N/A   Mostly Cloudy
4:00 PM 62.6 °F 55.4 °F 77% 29.89 in 6.2 mi NE 6.9 mph - N/A   Mostly Cloudy
5:00 PM 62.6 °F 55.4 °F 77% 29.89 in 6.2 mi East 2.3 mph - N/A   Mostly Cloudy
6:00 PM 62 °F 55 °F 70% 29.90 in 6 mi NNE 4.6 mph - -   Mostly Cloudy
6:00 PM 62.6 °F 55.4 °F 77% 29.89 in 6.2 mi NNE 4.6 mph - N/A   Mostly Cloudy
7:00 PM 60.8 °F 53.6 °F 77% 29.89 in 6.2 mi North 2.3 mph - N/A   Mostly Cloudy
8:00 PM 60.8 °F 55.4 °F 82% 29.89 in 6.2 mi East 2.3 mph - N/A   Mostly Cloudy
9:00 PM 61 °F 54 °F 73% 29.94 in 6 mi WNW 2.3 mph - - Rain Light Rain
9:00 PM 60.8 °F 55.4 °F 82% 29.92 in 6.2 mi WNW 2.3 mph - N/A   Mostly Cloudy